Regional Weather Roundup
Issued by NWS

Home | Current Version | Previous Version | Text Only | Print | Product List | Glossary On
Versions: 1 2 3 4 5 6 7 8 9 10 11 12 13 14 15 16 17 18 19 20 21 22 23 24 25 26 27 28 29 30 31 32 33 34 35 36 37 38 39 40 41 42 43 44 45 46 47 48 49 50
000
ASUS43 KOAX 221710
RWRNE

WEATHER ROUNDUP FOR NEBRASKA
NATIONAL WEATHER SERVICE OMAHA NE
1200 PM CDT TUE MAY 22 2018

NOTES: SATELLITE DATA IS BEING USED TO AUGMENT CLOUD COVER ABOVE
       12000 FEET.
       "FAIR" INDICATES FEW OR NO CLOUDS BELOW 12,000 FEET WITH NO
       SIGNIFICANT WEATHER AND/OR OBSTRUCTIONS TO VISIBILITY.


NEZ001>004-019>022-054>056-221800-
NEBRASKA PANHANDLE

CITY           SKY/WX    TMP DP  RH WIND       PRES   REMARKS
SCOTTSBLUFF    MOSUNNY   71  63  75 SE7       29.95F
ALLIANCE       SUNNY     76  61  59 SE14      29.95F
CHADRON        MOSUNNY   73  58  59 NE5       29.94F
GORDON         FAIR      78  53  41 E9        29.96S
KIMBALL        SUNNY     69  55  61 SE10      29.99S
SIDNEY         MOSUNNY   73  56  54 SE9       29.97F
$$

NEZ057>060-069>072-079>082-221800-
SOUTHWEST NEBRASKA

CITY           SKY/WX    TMP DP  RH WIND       PRES   REMARKS
NORTH PLATTE   PTSUNNY   76  59  55 S3        29.96S
IMPERIAL       CLOUDY    75  52  44 SE8       29.96F
LEXINGTON      CLOUDY    77  61  57 S7        29.97S
MCCOOK         CLOUDY    76  61  59 S9        29.96S
OGALLALA       PTSUNNY   76  55  49 S6        29.96S
$$

NEZ005>010-023>029-035>040-094-221800-
NORTH CENTRAL NEBRASKA

CITY           SKY/WX    TMP DP  RH WIND       PRES   REMARKS
VALENTINE      SUNNY     77  62  59 E10       29.95S
AINSWORTH      SUNNY     73  65  76 SE7       29.96F
BROKEN BOW     MOSUNNY   74  64  71 VRB3      29.96S
O`NEILL        MOSUNNY   75  64  69 E7        29.97R
ORD            MOSUNNY   75  65  70 E5        29.94S
THEDFORD       SUNNY     75  64  67 NE9       29.97F
$$

NEZ041-046>049-061>064-073>077-083>087-221800-
SOUTH CENTRAL NEBRASKA

CITY           SKY/WX    TMP DP  RH WIND       PRES   REMARKS
GRAND ISLAND   MOSUNNY   78  64  61 S10G20    29.97S
AURORA         CLOUDY    78  65  64 S13G18    29.98R
HASTINGS       PTSUNNY   78  64  61 SW10G18   29.99R
HEBRON         PTSUNNY   83  64  52 S17G24    29.99R
HOLDREGE       CLOUDY    76  63  64 S10       29.98S
KEARNEY        CLOUDY    78  64  61 S13       29.98R
YORK           MOSUNNY   79  68  69 S14       29.98S
$$

NEZ011>018-030>034-042>045-221800-
NORTHEAST NEBRASKA

CITY           SKY/WX    TMP DP  RH WIND       PRES   REMARKS
NORFOLK        CLOUDY    73  64  73 SE10      29.95S
ALBION         MOSUNNY   75  65  69 S8        29.96S
COLUMBUS       CLOUDY    79  66  64 S13       29.97F
FREMONT        MOSUNNY   74  66  74 SE17      30.00F
TEKAMAH        PTSUNNY   71  67  87 S16       29.98F
WAYNE          MOSUNNY   72  71  96 S15       29.98R
$$

NEZ050>053-065>068-078-088>093-221800-
SOUTHEAST NEBRASKA

CITY           SKY/WX    TMP DP  RH WIND       PRES   REMARKS
LINCOLN        CLOUDY    79  68  69 SE10      30.00S
OMAHA EPPLEY   CLOUDY    70  64  81 SE14      30.01F
BEATRICE       CLOUDY    82  65  56 S12G20    30.00S
FALLS CITY     CLOUDY    80  62  54 S6        30.03S
NEBRASKA CITY  CLOUDY    77  66  67 E14       30.04F
PLATTSMOUTH    CLOUDY    65  65  97 E12       30.06R
$$

NEZ044-045-051>053-067-221800-
OMAHA AREA

CITY           SKY/WX    TMP DP  RH WIND       PRES   REMARKS
OMAHA EPPLEY   CLOUDY    70  64  81 SE14      30.01F
FREMONT        MOSUNNY   74  66  74 SE17      30.00F
MILLARD        CLOUDY    69  66  89 SE9       30.02F
PLATTSMOUTH    CLOUDY    65  65  97 E12       30.06R
WAHOO          PTSUNNY   73  66  78 SE20      30.00F
$$




USA.gov is the U.S. government's official web portal to all federal, state and local government web resources and services.